METAR Formatted Surface Weather Observation
Issued by NWS Los Angeles, CA

Home | Current Version | Previous Version | Text Only | Print | Product List | Glossary On
Versions: 1 2 3 4 5 6 7 8 9 10 11 12 13 14 15 16 17 18 19 20
000
SAUS46 KLOX 271653
MTRSMX
METAR KSMX 271651Z 00000KT 10SM FEW045 SCT070 BKN080 16/12 A3020 RMK
AO2 SLP228 T01610122 $



USA.gov is the U.S. government's official web portal to all federal, state and local government web resources and services.